WetterOnline ( https://www.wetteronline.de )

Wetter aktuell Cham

Aktuelles Wetter: Waldmünchen (499m)

6-stündlich | Neueste Meldungen
Ortszeit Temperatur Wetter
So, 17.10. 2:00 -0.6° C wolkig
Sa, 16.10. 20:00 3.5° C wolkenlos
Sa, 16.10. 14:00 10.7° C wolkenlos
Sa, 16.10. 8:00 0.6° C Nebel
Sa, 16.10. 2:00 5.5° C leicht bewölkt
Fr, 15.10. 20:00 8.5° C leicht bewölkt
Fr, 15.10. 14:00 12.4° C wolkig
Fr, 15.10. 8:00 6.8° C bedeckt
Ortszeit Temperatur Wetter
So, 17.10. 3:10 -0.7° C wolkig
So, 17.10. 3:00 -0.7° C wolkig
So, 17.10. 2:50 -0.7° C wolkig
So, 17.10. 2:40 -1.0° C Nebel
So, 17.10. 2:30 -0.9° C wolkig
So, 17.10. 2:20 -0.9° C wolkig
So, 17.10. 2:00 -0.6° C wolkig
So, 17.10. 1:30 -0.6° C wolkenlos
So, 17.10. 1:00 -0.4° C wolkenlos
So, 17.10. 0:30 -0.1° C wolkenlos
So, 17.10. 0:00 0.4° C wolkenlos
Ortszeit Relative Feuchte Sichtweite
So, 17.10. 2:00 99% 20 km
Sa, 16.10. 20:00 94% 15 km
Sa, 16.10. 14:00 59% 65 km
Sa, 16.10. 8:00 100% 0.2 km
Sa, 16.10. 2:00 93% >70 km
Fr, 15.10. 20:00 92% 40 km
Fr, 15.10. 14:00 68% 45 km
Fr, 15.10. 8:00 93% 12 km
Ortszeit Relative Feuchte Sichtweite
So, 17.10. 3:10 99% -
So, 17.10. 3:00 100% 5.0 km
So, 17.10. 2:50 100% -
So, 17.10. 2:40 100% -
So, 17.10. 2:30 100% 15 km
So, 17.10. 2:20 100% -
So, 17.10. 2:00 99% 20 km
So, 17.10. 1:30 99% 4.9 km
So, 17.10. 1:00 100% 21 km
So, 17.10. 0:30 99% 5.0 km
So, 17.10. 0:00 100% 20 km
Ortszeit Niederschlagsmenge Niederschlagsart
So, 17.10. 2:00 0.0 l/m2 in 6 Std. -
Sa, 16.10. 20:00 0.0 l/m2 in 12 Std. -
Sa, 16.10. 14:00 0.0 l/m2 in 6 Std. -
Sa, 16.10. 8:00 0.1 l/m2 in 12 Std. -
Sa, 16.10. 2:00 0.1 l/m2 in 6 Std. Regen
Fr, 15.10. 20:00 0.0 l/m2 in 12 Std. -
Fr, 15.10. 14:00 0.0 l/m2 in 6 Std. -
Fr, 15.10. 8:00 0.2 l/m2 in 12 Std. -
Ortszeit Niederschlagsmenge Niederschlagsart
So, 17.10. 3:10 keine Meldung -
So, 17.10. 3:00 0.0 l/m2 in 1 Std. -
So, 17.10. 2:50 keine Meldung -
So, 17.10. 2:40 keine Meldung -
So, 17.10. 2:30 0.0 l/m2 in 1 Std. -
So, 17.10. 2:20 keine Meldung -
So, 17.10. 2:00 0.0 l/m2 in 1 Std. -
So, 17.10. 1:30 0.0 l/m2 in 1 Std. -
So, 17.10. 1:00 0.0 l/m2 in 1 Std. -
So, 17.10. 0:30 0.0 l/m2 in 1 Std. -
So, 17.10. 0:00 0.0 l/m2 in 1 Std. -
Ortszeit Stärke Spitze Richtung
km/h Bft. km/h Grad Sektor
So, 17.10. 2:00 2 1 11 60° NO
Sa, 16.10. 20:00 7 2 18 60° NO
Sa, 16.10. 14:00 14 3 25 20° N
Sa, 16.10. 8:00 2 1 11 140° SO
Sa, 16.10. 2:00 6 1 13 310° NW
Fr, 15.10. 20:00 7 2 32 290° W
Fr, 15.10. 14:00 14 3 29 200° S
Fr, 15.10. 8:00 9 2 19 200° S
Ortszeit Stärke Spitze Richtung
km/h Bft. km/h Grad Sektor
So, 17.10. 3:10 2 1 - 280° W
So, 17.10. 3:00 0 0 7 - -
So, 17.10. 2:50 0 0 - 330° NW
So, 17.10. 2:40 2 1 - 200° S
So, 17.10. 2:30 4 1 7 50° NO
So, 17.10. 2:20 4 1 - 50° NO
So, 17.10. 2:00 2 1 6 60° NO
So, 17.10. 1:30 4 1 7 60° NO
So, 17.10. 1:00 2 1 4 30° NO
So, 17.10. 0:30 4 1 4 60° NO
So, 17.10. 0:00 0 0 4 - -
Ortszeit Untergrenze Bedeckung Gattung
total tief tief mittel hoch
So, 17.10. 2:00 10500 m 7/8 0/8 - - -
Sa, 16.10. 20:00 - 0/8 0/8 - - -
Sa, 16.10. 14:00 - 0/8 0/8 - - -
Sa, 16.10. 8:00 <30 m 3/8 0/8 - - -
Sa, 16.10. 2:00 1500 m 3/8 3/8 - - -
Fr, 15.10. 20:00 1290 m 2/8 5/8 - - -
Fr, 15.10. 14:00 6600 m 7/8 7/8 - - -
Fr, 15.10. 8:00 540 m 8/8 8/8 - - -
Ortszeit Bedeckungsgrad in Achtel und Wolkenuntergrenze
So, 17.10. 3:10 8(10500m)
So, 17.10. 3:00 8(9000m) 8(10500m)
So, 17.10. 2:50 8(9000m) 8(10500m)
So, 17.10. 2:40 8(9000m)
So, 17.10. 2:30 8(10500m) 8(10500m)
So, 17.10. 2:20 8(10500m)
So, 17.10. 2:00 7(10500m)
So, 17.10. 1:30 4(10500m)
So, 17.10. 1:00 keine Wolken
So, 17.10. 0:30 keine Wolken
So, 17.10. 0:00 keine Wolken
Ortszeit Luftdruck NN (hPa) Tendenz (hPa in 3 Std.)
So, 17.10. 2:00 1024 + 0,1
Sa, 16.10. 20:00 1023 + 0,9
Sa, 16.10. 14:00 1022 - 0,8
Sa, 16.10. 8:00 1024 + 0,8
Sa, 16.10. 2:00 1021 + 0,5
Fr, 15.10. 20:00 1019 + 1,3
Fr, 15.10. 14:00 1018 - 1,3
Fr, 15.10. 8:00 1020 - 1,2
Ortszeit Luftdruck NN (hPa) Tendenz (hPa in 3 Std.)
So, 17.10. 3:10 1024 keine Meldung
So, 17.10. 3:00 1024 - 0,2
So, 17.10. 2:50 1024 keine Meldung
So, 17.10. 2:40 1024 keine Meldung
So, 17.10. 2:30 1024 - 0,1
So, 17.10. 2:20 1024 keine Meldung
So, 17.10. 2:00 1024 + 0,1
So, 17.10. 1:30 1024 - 0,1
So, 17.10. 1:00 1024 0,0
So, 17.10. 0:30 1024 0,0
So, 17.10. 0:00 1024 0,0
Ortszeit Schneehöhe (cm)
So, 17.10. 2:00 0
Sa, 16.10. 20:00 0
Sa, 16.10. 14:00 0
Sa, 16.10. 8:00 0
Sa, 16.10. 2:00 0
Fr, 15.10. 20:00 0
Fr, 15.10. 14:00 0
Fr, 15.10. 8:00 0
Ortszeit Schneehöhe (cm)
So, 17.10. 3:10 0
So, 17.10. 3:00 0
So, 17.10. 2:50 0
So, 17.10. 2:40 0
So, 17.10. 2:30 0
So, 17.10. 2:20 0
So, 17.10. 2:00 0
So, 17.10. 1:30 0
So, 17.10. 1:00 0
So, 17.10. 0:30 0
So, 17.10. 0:00 0
Link zu dieser Seite / Seite empfehlen

Das Wetter in ...